Cloud_Cover
9 6 81 100 100 91 100 100 100 100 89 100 41 46 80 23 73 78 64 96 94 81 59 77 54 99 0 0 0 4 0 0 0 0 0 0 0 0 0 4 4 4 0 1 8 6 5 4 2
73 89 83 100 86 100 100 100 100 100 100 100 80 99 91 6 41 100 55 36 27 5 8 77 55 79 0 0 0 0 0 0 0 0 0 0 0 0 0 1 3 7 9 100 100 5 46 45 5
18 77 66 100 100 100 100 100 99 100 100 76 5 4 5 20 66 74 43 4 0 0 1 41 2 47 0 0 0 0 0 0 0 0 0 0 0 0 5 3 2 0 24 5 13 94 19 5 1
90 100 100 100 96 75 100 97 99 100 49 30 2 3 4 3 5 98 5 3 0 0 0 4 0 1 0 0 0 0 0 0 0 0 0 1 0 8 0 0 1 3 2 4 0 0 0 0 0
86 68 98 100 100 100 100 100 100 99 100 9 2 0 4 1 0 5 5 0 0 0 0 0 0 0 0 0 0 0 0 1 0 0 0 0 0 0 1 0 0 0 0 0 0 0 0 0 0
95 81 100 100 100 100 78 100 100 95 31 5 3 4 36 4 4 5 1 0 0 0 0 0 0 0 0 0 0 0 0 0 0 0 0 0 0 0 0 0 0 0 0 0 0 0 0 0 0
71 42 100 100 100 100 99 100 100 99 4 5 0 18 40 3 0 0 0 0 67 0 0 0 0 0 0 0 0 2 0 0 0 3 4 15 1 0 0 0 0 0 0 0 0 0 0 0 0
72 100 100 100 100 100 100 53 100 42 95 5 1 44 74 0 0 0 0 0 0 0 0 0 0 0 0 0 0 0 0 96 100 100 100 34 79 0 0 0 0 0 0 0 0 1 0 0 0
77 92 100 100 100 100 96 78 92 12 19 0 0 0 0 0 0 0 0 30 0 0 0 0 0 0 0 0 0 0 1 100 94 100 55 5 0 0 0 0 0 0 0 0 0 4 66 30 1
28 67 100 100 100 100 100 100 52 1 21 1 3 3 0 0 0 0 0 97 0 0 0 0 0 0 0 0 0 0 4 96 91 100 100 53 2 88 63 0 9 8 0 48 0 0 1 0 0
22 92 94 100 100 88 86 40 92 89 0 0 0 2 83 1 24 84 0 0 0 0 0 0 0 0 0 0 0 0 99 85 57 100 100 4 32 39 100 75 55 4 10 8 3 2 12 5 4
75 80 100 84 82 77 94 100 100 90 54 1 0 0 20 98 100 42 22 1 0 0 0 0 0 0 0 0 0 0 79 35 15 100 88 4 8 1 96 80 73 58 84 5 0 3 4 10 21
88 8 88 87 49 22 21 29 100 49 3 4 1 0 1 85 99 67 2 6 0 0 0 0 0 0 0 0 0 0 1 2 98 17 11 0 0 2 5 92 38 28 5 21 6 5 5 32 89
1 5 38 91 72 87 34 23 2 17 20 0 0 0 0 0 0 48 2 0 19 0 0 0 0 0 0 0 0 0 53 40 5 25 0 0 64 10 10 68 8 22 2 6 15 5 5 64 28
5 100 100 89 100 100 90 93 5 0 5 2 0 0 0 0 0 0 0 0 0 0 11 0 0 0 0 34 0 0 2 46 59 93 10 0 3 0 0 28 32 0 0 0 0 13 34 99 100
5 90 98 12 12 8 100 74 16 5 5 90 0 0 0 0 0 0 0 0 0 0 0 0 0 0 0 0 0 0 0 31 0 3 23 0 0 3 1 15 41 0 57 0 0 98 42 37 41
4 5 43 75 18 90 27 29 89 100 27 51 60 1 0 0 0 0 0 0 0 0 0 0 0 0 0 0 0 0 0 0 92 66 0 0 0 3 2 8 29 1 16 12 24 6 79 32 2
0 5 4 2 6 70 5 22 8 97 68 96 100 100 73 2 16 0 0 1 0 0 0 0 0 0 0 0 0 0 0 0 4 98 3 0 0 0 5 4 4 1 27 0 19 11 0 0 0
0 0 0 0 2 81 0 1 8 36 2 96 100 100 100 8 1 7 0 22 0 0 0 0 0 0 0 0 0 0 0 0 0 0 0 7 8 5 5 5 36 12 0 0 0 0 0 0 0
0 0 0 2 0 67 26 99 100 90 7 100 100 100 99 100 62 0 0 0 0 0 0 0 0 0 0 0 0 0 0 0 0 0 1 100 25 4 2 61 67 100 32 0 0 0 0 0 0
0 0 0 0 0 10 97 95 100 100 51 100 100 100 76 100 34 0 0 0 0 0 0 0 0 0 0 0 0 0 0 0 0 0 1 95 60 78 4 23 34 4 3 0 0 0 0 0 0
0 0 0 0 2 39 100 94 100 100 93 100 100 100 87 80 42 94 2 0 0 0 0 0 0 0 0 0 0 0 0 0 0 0 0 1 86 100 44 0 0 0 1 0 0 0 0 0 0
0 0 0 0 0 5 74 98 33 100 99 66 98 100 100 43 74 100 0 0 0 0 0 0 0 0 0 0 0 0 0 0 0 0 0 0 0 0 0 1 0 0 0 0 0 0 0 0 0
0 0 0 0 0 2 1 56 40 2 1 5 5 2 0 73 100 100 0 0 0 0 0 0 0 0 0 0 0 0 0 0 0 0 0 0 0 0 0 0 0 0 0 0 0 0 0 0 0
0 0 0 0 0 0 0 1 0 4 0 3 14 29 15 100 100 100 100 0 0 0 0 0 0 0 0 0 0 0 0 0 0 0 0 0 0 0 0 0 0 1 0 0 0 0 0 0 0
0 0 0 0 0 0 0 0 0 0 13 98 94 38 91 28 54 54 94 0 0 0 0 0 0 0 0 0 0 0 0 0 0 0 0 0 0 0 0 0 0 0 0 0 0 0 0 0 0
0 0 0 0 0 0 0 0 0 0 0 5 47 98 99 5 4 0 0 0 0 0 0 0 0 0 0 0 0 0 0 0 0 0 0 0 0 0 0 0 0 0 0 0 5 4 0 0 0
0 0 0 0 0 0 0 0 0 0 0 0 0 95 80 17 4 0 0 0 0 0 0 0 0 0 0 0 0 0 0 0 0 0 0 0 0 0 0 0 0 0 0 0 0 3 1 0 1
0 0 0 0 0 0 0 0 0 0 0 0 0 3 10 12 5 0 0 0 5 0 0 0 0 0 0 0 0 0 0 0 0 0 0 0 0 0 0 0 0 0 0 0 0 0 0 0 0
0 0 0 0 0 0 0 0 0 0 0 0 0 0 5 7 5 0 0 0 5 0 0 0 0 0 0 0 0 0 0 0 0 0 0 0 0 0 0 0 0 0 0 0 0 0 0 0 0